Location: Alafon
(8.4500°N, 4.2333°E)
Time: 15:53:03
(UTC+00:00)

Transit 2A - Pass Details

Date: 02 August 2021
Orbit: 595 x 964 km, 66.7° (Epoch: 18 September)

Event Time Altitude Azimuth Distance (km) Brightness Sun altitude
Rises 16:57:11 0° 309° (NW) 3,534 10.8 14.9°
Reaches altitude 10° 17:00:37 10° 289° (WNW) 2,639 11.9 14.1°
Maximum altitude 17:04:24 17° 252° (WSW) 2,220 9.5 13.2°
Drops below altitude 10° 17:08:15 10° 214° (SSW) 2,692 9.1 12.3°
Sets 17:11:50 0° 194° (SSW) 3,637 9.5 11.4°
